Weather reports worldwide

Advertisment
Shawbury, United Kingdom (3414): temperature & dewpoint: 26.10.2020 00:00:00 - 01.11.2020 00:00:00 (GMT)Shawbury, United Kingdom (3414): temperature -20cm & temperature -100cm: 26.10.2020 00:00:00 - 01.11.2020 00:00:00 (GMT)Shawbury, United Kingdom (3414): wind speed & gusts: 26.10.2020 00:00:00 - 01.11.2020 00:00:00 (GMT)Shawbury, United Kingdom (3414): wind direction: 26.10.2020 00:00:00 - 01.11.2020 00:00:00 (GMT)Shawbury, United Kingdom (3414): reduced air pressure: 26.10.2020 00:00:00 - 01.11.2020 00:00:00 (GMT)Shawbury, United Kingdom (3414): visibility: 26.10.2020 00:00:00 - 01.11.2020 00:00:00 (GMT)Shawbury, United Kingdom (3414): sunshine duration: 26.10.2020 00:00:00 - 01.11.2020 00:00:00 (GMT)Shawbury, United Kingdom (3414): precipitation: 26.10.2020 00:00:00 - 01.11.2020 00:00:00 (GMT)
Date & Time tt [°C] td [°C] tt -20cm [°C] tt -100cm [°C] ff [km/h] ff [kn] fx [km/h] fx [kn] dd ppp [hPa] vv [km] sd [min] rr [mm]
01.11.2020 00:00:00 9,7 5,6 - - 18 10 - - S 1005,6 19 - 0,0
31.10.2020 23:00:00 9,7 5,3 - - 18 10 - - S 1006,7 20 0 0,0
31.10.2020 22:00:00 9,6 5,1 - - 15 8 - - S 1007,2 21 0 0,0
31.10.2020 21:00:00 9,8 4,7 - - 21 11 - - SW 1007,0 23 0 0,0
31.10.2020 20:00:00 9,9 4,7 - - 24 13 - - SW 1006,9 25 0 0,0
31.10.2020 19:00:00 10,0 4,8 - - 28 15 - - SW 1006,7 19 0 0,0
31.10.2020 18:00:00 10,0 5,5 - - 28 15 - - SW 1006,3 22 0 0,0
31.10.2020 17:00:00 10,3 5,7 - - 26 14 - - WSW 1005,5 10 6 0,0
31.10.2020 16:00:00 11,0 6,3 - - 26 14 52 28 WSW 1004,8 26 6 0,0
31.10.2020 15:00:00 12,3 6,0 - - 31 17 59 32 WSW 1003,9 35 36 0,0
31.10.2020 14:00:00 12,4 7,6 - - 41 22 70 38 WSW 1002,4 28 48 0,0
31.10.2020 13:00:00 13,2 6,7 - - 48 26 70 38 WSW 1000,6 28 30 0,0
31.10.2020 12:00:00 13,0 10,6 - - 48 26 63 34 WSW 1000,0 30 0 0,8
31.10.2020 11:00:00 14,6 12,8 - - 35 19 59 32 S 998,8 24 0 0,0
31.10.2020 10:00:00 14,4 12,8 - - 37 20 61 33 S 999,8 23 0 1,4
31.10.2020 09:00:00 14,5 12,5 11,2 11,5 42 23 65 35 S 1000,5 10 0 0,0
31.10.2020 08:00:00 13,9 11,8 - - 35 19 57 31 SSE 1002,3 10 0 0,0
31.10.2020 07:00:00 14,0 11,5 - - 29 16 46 25 SSE 1004,4 10 0 0,0
31.10.2020 06:00:00 14,2 10,8 - - 24 13 50 27 SSE 1006,5 45 0 0,0
31.10.2020 05:00:00 14,4 11,6 - - 34 18 54 29 S 1007,6 50 0 0,0
31.10.2020 04:00:00 14,7 12,3 - - 37 20 52 28 S 1009,0 45 0 0,0
31.10.2020 03:00:00 14,4 12,9 - - 22 12 - - SSE 1010,1 45 0 0,0
31.10.2020 02:00:00 14,3 12,9 - - 15 8 - - SSE 1011,4 35 0 0,0
31.10.2020 01:00:00 13,2 12,5 - - 18 10 - - SSE 1012,5 9 0 0,0
31.10.2020 00:00:00 11,3 10,4 - - 11 6 - - ESE 1013,6 10 - 0,0
30.10.2020 23:00:00 11,1 9,3 - - 16 9 - - ESE 1014,7 23 0 0,0
30.10.2020 22:00:00 10,6 9,2 - - 11 6 - - ESE 1015,7 20 0 0,0
30.10.2020 21:00:00 10,5 9,0 - - 9 5 - - ESE 1016,5 23 0 0,0
30.10.2020 20:00:00 10,1 8,8 - - 2 1 - - SE 1017,1 30 0 0,0
30.10.2020 19:00:00 9,5 8,1 - - 4 2 - - NE 1017,3 35 0 0,0
30.10.2020 18:00:00 10,4 8,3 - - 5 3 - - E 1017,0 45 0 0,0
30.10.2020 17:00:00 11,0 8,6 - - 4 2 - - N 1016,6 50 0 0,0
30.10.2020 16:00:00 11,5 9,6 - - 11 6 - - NNW 1015,9 10 0 0,0
30.10.2020 15:00:00 11,8 9,7 - - 16 9 - - N 1015,1 10 0 0,0
30.10.2020 14:00:00 13,0 11,0 - - 15 8 - - NNW 1014,1 10 0 0,0
30.10.2020 13:00:00 14,8 12,0 - - 13 7 - - NNW 1013,2 50 18 0,0
30.10.2020 12:00:00 15,4 12,5 - - 21 11 - - W 1012,8 10 0 0,0
30.10.2020 11:00:00 15,7 13,1 - - 22 12 - - WSW 1012,2 10 0 0,0
30.10.2020 10:00:00 15,5 13,4 - - 21 11 - - SW 1010,8 10 0 0,0
30.10.2020 09:00:00 15,0 12,7 10,9 11,4 21 11 - - SSW 1010,1 10 0 0,0
30.10.2020 08:00:00 14,9 12,4 - - 22 12 - - SW 1009,5 45 0 0,0
30.10.2020 07:00:00 14,5 12,5 - - 24 13 - - SW 1008,5 65 0 0,2
30.10.2020 06:00:00 14,1 12,6 - - 22 12 - - SSW 1008,3 35 0 0,0
30.10.2020 05:00:00 14,2 12,7 - - 28 15 - - SW 1008,3 22 0 0,4
30.10.2020 04:00:00 15,0 12,1 - - 31 17 46 25 SW 1007,8 65 0 0,0
30.10.2020 03:00:00 14,8 12,0 - - 34 18 52 28 SW 1007,4 60 0 0,0
30.10.2020 02:00:00 14,9 12,1 - - 34 18 48 26 SW 1007,1 60 0 0,0
30.10.2020 01:00:00 14,7 12,2 - - 31 17 50 27 SW 1006,9 65 0 0,0
30.10.2020 00:00:00 14,8 11,9 - - 35 19 - - SW 1007,0 10 - 0,0
29.10.2020 23:00:00 14,8 11,9 - - 31 17 48 26 SW 1006,9 10 0 0,0
29.10.2020 22:00:00 14,9 11,9 - - 34 18 48 26 SW 1006,9 10 0 0,0
29.10.2020 21:00:00 13,9 11,9 - - 24 13 - - SSW 1006,9 10 0 0,0
29.10.2020 20:00:00 13,6 11,9 - - 31 17 54 29 SSW 1006,7 10 0 0,0
29.10.2020 19:00:00 14,2 11,9 - - 29 16 46 25 SW 1006,3 10 0 0,0
29.10.2020 18:00:00 13,8 11,8 - - 31 17 57 31 SW 1006,5 10 0 0,0
29.10.2020 17:00:00 14,2 11,7 - - 44 24 61 33 SW 1005,8 10 0 0,0
29.10.2020 16:00:00 14,6 11,6 - - 44 24 63 34 SW 1005,7 10 0 0,0
29.10.2020 15:00:00 14,8 11,3 - - 46 25 61 33 SW 1005,4 10 0 0,0
29.10.2020 14:00:00 14,5 11,5 - - 37 20 57 31 SW 1005,8 10 0 0,0
29.10.2020 13:00:00 14,2 11,7 - - 39 21 59 32 SW 1005,4 10 0 0,2
29.10.2020 12:00:00 13,1 11,8 - - 22 12 - - S 1005,9 10 0 0,6
29.10.2020 11:00:00 11,4 10,4 - - 21 11 - - S 1006,6 10 0 0,4
29.10.2020 10:00:00 10,5 9,4 - - 22 12 - - S 1006,9 10 0 0,2
29.10.2020 09:00:00 9,8 8,4 10,0 11,7 16 9 - - S 1007,5 10 0 0,2
29.10.2020 08:00:00 8,9 6,9 - - 15 8 - - SSE 1007,8 26 0 0,0
29.10.2020 07:00:00 8,8 6,3 - - 15 8 - - S 1008,3 35 0 0,0
29.10.2020 06:00:00 8,7 6,1 - - 15 8 - - SSW 1008,4 35 0 0,0
29.10.2020 05:00:00 8,6 5,7 - - 16 9 - - WSW 1008,1 30 0 0,0
29.10.2020 04:00:00 8,4 5,3 - - 18 10 - - SW 1007,7 28 0 0,0
29.10.2020 03:00:00 7,8 4,8 - - 13 7 - - SSW 1007,2 10 0 0,0
29.10.2020 02:00:00 7,4 4,4 - - 21 11 - - SSW 1006,9 25 0 0,0
29.10.2020 01:00:00 7,2 4,1 - - 16 9 - - SSW 1006,0 26 0 0,0
29.10.2020 00:00:00 7,4 4,3 - - 15 8 - - WSW 1005,2 10 - 0,0
28.10.2020 23:00:00 6,8 4,1 - - 16 9 - - WSW 1004,6 30 0 0,0
28.10.2020 22:00:00 7,0 4,3 - - 13 7 - - WSW 1003,3 10 0 0,0
28.10.2020 21:00:00 6,7 4,2 - - 16 9 - - WSW 1002,4 10 0 0,0
28.10.2020 20:00:00 6,7 4,4 - - 16 9 - - WSW 1001,8 40 0 0,2
28.10.2020 19:00:00 8,1 5,3 - - 21 11 - - SW 1001,2 12 0 0,2
28.10.2020 18:00:00 7,8 5,2 - - 18 10 - - SSW 999,7 10 0 0,0
28.10.2020 17:00:00 9,1 5,4 - - 18 10 - - SW 998,9 10 0 0,0
28.10.2020 16:00:00 8,5 5,1 - - 21 11 55 30 W 998,3 10 12 0,0
28.10.2020 15:00:00 9,6 6,1 - - 16 9 - - WSW 997,9 30 0 0,0
28.10.2020 14:00:00 10,9 5,4 - - 26 14 - - SW 997,7 10 0 0,0
28.10.2020 13:00:00 10,3 5,0 - - 21 11 - - SSW 997,7 10 36 0,0
28.10.2020 12:00:00 9,5 4,9 - - 29 16 50 27 SW 997,8 10 0 0,0
28.10.2020 11:00:00 11,4 6,1 - - 24 13 - - SSW 997,4 10 24 0,0
28.10.2020 10:00:00 9,5 5,1 - - 21 11 - - SSW 997,4 10 30 0,0
28.10.2020 09:00:00 9,0 5,2 10,2 11,7 13 7 - - SW 997,1 10 12 0,0
28.10.2020 08:00:00 7,6 4,4 - - 16 9 - - S 996,8 10 0 0,0
28.10.2020 07:00:00 7,0 4,1 - - 13 7 - - S 996,4 30 0 0,0
28.10.2020 06:00:00 7,2 4,0 - - 11 6 - - S 996,3 40 0 0,0
28.10.2020 05:00:00 7,8 4,8 - - 18 10 - - SSW 995,8 35 0 0,0
28.10.2020 04:00:00 7,3 4,4 - - 22 12 - - SSW 995,7 10 0 0,0
28.10.2020 03:00:00 7,6 4,9 - - 15 8 - - S 995,6 29 0 0,0
28.10.2020 02:00:00 7,8 4,9 - - 26 14 - - SSW 995,7 30 0 0,2
28.10.2020 01:00:00 7,6 5,0 - - 18 10 - - SSW 995,8 26 0 0,0
28.10.2020 00:00:00 8,1 4,7 - - 13 7 - - S 995,7 10 - 0,0
27.10.2020 23:00:00 8,0 4,5 - - 11 6 - - S 995,5 10 0 0,0
27.10.2020 22:00:00 7,8 4,6 - - 13 7 - - WSW 995,2 10 0 0,0
27.10.2020 21:00:00 7,9 4,7 - - 13 7 - - S 994,8 30 0 0,0
27.10.2020 20:00:00 8,0 5,1 - - 9 5 - - SW 994,6 10 0 0,0
27.10.2020 19:00:00 8,9 4,5 - - 29 16 - - SW 993,8 10 0 0,0
27.10.2020 18:00:00 9,3 5,1 - - 21 11 - - WSW 992,9 10 0 0,0
27.10.2020 17:00:00 9,4 5,7 - - 28 15 - - WSW 992,2 25 6 0,0
27.10.2020 16:00:00 10,6 6,4 - - 31 17 54 29 WSW 991,5 10 30 0,2
27.10.2020 15:00:00 11,9 8,0 - - 29 16 - - WSW 990,4 10 12 0,0
27.10.2020 14:00:00 12,2 10,3 - - 26 14 46 25 SW 989,6 10 0 0,4
27.10.2020 13:00:00 12,0 10,3 - - 22 12 - - S 989,5 10 0 0,0
27.10.2020 12:00:00 10,7 9,3 - - 24 13 - - S 990,0 10 0 0,0
27.10.2020 11:00:00 10,4 8,8 - - 24 13 - - S 991,4 10 0 0,0
27.10.2020 10:00:00 9,5 7,6 - - 18 10 - - SSE 992,6 10 0 0,0
27.10.2020 09:00:00 9,0 7,3 10,4 11,7 21 11 - - SSE 993,5 25 0 0,0
27.10.2020 08:00:00 7,7 6,7 - - 13 7 - - SE 994,7 10 0 0,0
27.10.2020 07:00:00 7,4 6,5 - - 11 6 - - SSE 995,5 16 0 1,2
27.10.2020 06:00:00 7,3 5,5 - - 11 6 - - SSE 996,3 18 0 0,0
27.10.2020 05:00:00 7,4 5,3 - - 11 6 - - S 997,1 35 0 0,0
27.10.2020 04:00:00 6,8 5,1 - - 5 3 - - SSW 997,5 40 0 0,0
27.10.2020 03:00:00 6,2 4,1 - - 2 1 - - N 998,1 40 0 0,0
27.10.2020 02:00:00 6,9 5,3 - - 8 4 - - S 998,8 10 0 0,0
27.10.2020 01:00:00 7,1 5,2 - - 15 8 - - WSW 998,9 35 0 0,0
27.10.2020 00:00:00 6,9 5,2 - - 13 7 - - SW 999,0 30 - 0,0
26.10.2020 23:00:00 7,1 5,0 - - 9 5 - - SW 999,3 40 0 0,0
26.10.2020 22:00:00 7,4 5,1 - - 15 8 - - WSW 999,0 10 0 0,0
26.10.2020 21:00:00 7,4 5,3 - - 9 5 - - WSW 999,0 10 0 0,0
26.10.2020 20:00:00 8,0 5,4 - - 15 8 - - WSW 998,5 10 0 0,0
26.10.2020 19:00:00 8,1 5,4 - - 16 9 - - WSW 998,1 10 0 0,0
26.10.2020 18:00:00 9,1 5,9 - - 18 10 - - W 997,8 10 0 0,0
26.10.2020 17:00:00 9,5 5,5 - - 15 8 - - W 997,2 10 0 0,0
26.10.2020 16:00:00 10,9 5,5 - - 18 10 - - W 996,9 10 0 0,0
26.10.2020 15:00:00 11,7 5,9 - - 18 10 - - W 996,3 10 24 0,0
26.10.2020 14:00:00 12,1 5,8 - - 35 19 48 26 W 995,6 10 42 0,0
26.10.2020 13:00:00 12,9 7,1 - - 34 18 50 27 W 995,1 10 60 0,0
26.10.2020 12:00:00 11,8 6,9 - - 26 14 - - W 995,0 10 36 0,0
26.10.2020 11:00:00 11,7 7,0 - - 22 12 - - W 994,4 10 18 0,0
26.10.2020 10:00:00 11,3 8,0 - - 16 9 - - W 993,9 10 30 0,0
26.10.2020 09:00:00 9,8 8,6 10,7 12,0 13 7 - - SW 993,0 10 6 0,0
26.10.2020 08:00:00 8,1 7,3 - - 11 6 - - S 992,4 18 0 0,0
26.10.2020 07:00:00 7,8 6,5 - - 16 9 - - S 991,7 12 0 0,4
26.10.2020 06:00:00 7,3 5,9 - - 13 7 - - S 991,3 21 0 0,0
26.10.2020 05:00:00 7,2 5,3 - - 15 8 - - S 991,5 17 0 0,0
26.10.2020 04:00:00 7,1 5,2 - - 15 8 - - SSE 991,6 10 0 0,0
26.10.2020 03:00:00 7,6 5,2 - - 13 7 - - S 991,8 35 0 0,0
26.10.2020 02:00:00 7,5 5,0 - - 21 11 - - S 991,9 35 0 0,0
26.10.2020 01:00:00 7,4 4,9 - - 18 10 - - S 992,2 40 0 0,0
26.10.2020 00:00:00 7,2 5,0 - - 18 10 - - S 992,5 45 - 0,0

tt = temperature
td = dewpoint
tt -20cm = temperature -20cm
tt -100cm = temperature -100cm
ff = wind speed
fx = gusts
dd = wind direction
ppp = reduced air pressure
vv = visibility
sd = sunshine duration
rr = precipitation

Next stations